BEIDOU-2 G5

Last updated on Mon Oct 20 2025 00:02:47 GMT+0000 (Coordinated Universal Time)

1 38091U 12008A 25292.13618995 .00000057 00000+0 00000+0 0 9994 2 38091 2.9698 70.8813 0009372 220.9423 203.8095 1.00269292 49952
UTC large
Height (km)
Speed (km/s)
/
Latitude / Longitude
Inclination (degrees)
Orbital Period (minutes)
Azimuth
Elevation
Range (km)
Doppler Factor

Next 0 passes for location: London (51.5072 / 0.1276)

Sorry there are no passes over London.